Home > Weather > Weyhe > Past weeks

Flag for Germany Past Weather in Weyhe, Lower Saxony, Germany — Yesterday and Last 2 Weeks

Now
61 °F

Drizzle. Partly sunny.


Feels Like: 61 °F
Forecast: 53 / 66 °F
Wind: 7 mph from West

Location: Bremen Airport

Current Time: Jun 27, 2016 at 6:52:16 PM

Latest Report: Jun 27, 2016 at 6:20 PM


Visibility: 4 mi

Pressure: 30.01 "Hg

Humidity: 94%

Dew Point: 59 °F

Location of WeyheLocation

Past Weather in Weyhe — Graph

°F

Weyhe Temperature Yesterday

Maximum temperature yesterday: 68 °F (at 1:20 PM)
Minimum temperature yesterday: 54 °F (at 2:50 AM)
Average temperature yesterday: 61 °F

High & Low Weather Summary for the Past Weeks

 TemperatureHumidityPressure
High88 °F (Jun 23, 2:50 PM)100% (Jun 13, 3:50 AM)30.21 "Hg (Jun 13, 3:50 AM)
Low46 °F (Jun 20, 1:50 AM)49% (Jun 20, 11:20 AM)29.45 "Hg (Jun 14, 12:50 PM)
Average63 °F82%29.87 "Hg
* Reported Jun 12 5:20 PM — Jun 27 5:20 PM, Weyhe, Weather by CustomWeather, © 2016

Note: Actual official high and low records may vary slightly from our data, if they occured in-between our weather recording intervals... More about our weather records

Advertising

Weyhe Weather History for the Previous 24 Hours

Scroll right to see more
 ConditionsComfort  
Time TempWeatherWind HumidityBarometerVisibility
5:20 PM
Mon, Jun 27
64 °FPartly sunny.7 mph83%30.01 "HgN/A
4:50 PM64 °FPartly sunny.12 mph78%30.01 "HgN/A
4:20 PM66 °FPartly sunny.14 mph73%29.98 "HgN/A
3:50 PM66 °FBroken clouds.14 mph68%29.98 "HgN/A
3:20 PM66 °FBroken clouds.14 mph64%29.98 "HgN/A
2:50 PM68 °FPartly sunny.12 mph60%29.98 "HgN/A
2:20 PM66 °FBroken clouds.14 mph64%29.98 "HgN/A
1:50 PM68 °FBroken clouds.15 mph60%29.98 "HgN/A
1:20 PM68 °FBroken clouds.16 mph56%30.01 "HgN/A
12:50 PM68 °FBroken clouds.13 mph60%30.01 "HgN/A
12:20 PM66 °FScattered clouds.15 mph64%30.01 "HgN/A
11:50 AM66 °FScattered clouds.17 mph64%30.01 "HgN/A
11:20 AM66 °FBroken clouds.16 mph68%30.01 "HgN/A
10:50 AM66 °FScattered clouds.15 mph68%30.01 "HgN/A
10:20 AM64 °FScattered clouds.14 mph68%30.01 "HgN/A
9:50 AM64 °FScattered clouds.13 mph73%30.01 "HgN/A
9:20 AM63 °FScattered clouds.14 mph77%30.01 "HgN/A
8:50 AM61 °FPassing clouds.12 mph83%30.01 "HgN/A
8:20 AM61 °FPassing clouds.12 mph83%30.01 "HgN/A
7:50 AM59 °FPassing clouds.9 mph88%30.01 "HgN/A
7:20 AM57 °FPassing clouds.8 mph88%30.01 "HgN/A
6:50 AM55 °FPassing clouds.7 mph94%30.01 "HgN/A
6:20 AM54 °FPassing clouds.6 mph100%30.01 "HgN/A
5:50 AM52 °FClear.5 mph100%30.01 "Hg10 mi
5:20 AM52 °FClear.5 mph100%30.01 "Hg10 mi
4:50 AM52 °FClear.6 mph100%30.01 "Hg10 mi
4:20 AM52 °FClear.6 mph100%30.01 "Hg10 mi
3:50 AM54 °FClear.6 mph94%30.01 "Hg10 mi
3:20 AM54 °FClear.7 mph94%30.01 "Hg10 mi
2:50 AM54 °FPassing clouds.6 mph94%30.01 "HgN/A
2:20 AM55 °FPassing clouds.6 mph94%30.01 "HgN/A
1:50 AM54 °FPassing clouds.5 mph94%30.01 "HgN/A
1:20 AM55 °FClear.6 mph88%30.01 "Hg10 mi
12:50 AM55 °FClear.6 mph94%30.01 "Hg10 mi
12:20 AM57 °FClear.6 mph88%30.01 "Hg10 mi
11:50 PM
Sun, Jun 26
57 °FPassing clouds.6 mph88%30.01 "HgN/A
11:20 PM57 °FPassing clouds.5 mph82%30.04 "HgN/A
10:50 PM57 °FPassing clouds.6 mph82%30.01 "HgN/A
10:20 PM57 °FPassing clouds.6 mph82%30.01 "HgN/A
9:50 PM57 °FPassing clouds.6 mph82%30.01 "HgN/A
9:20 PM61 °FSunny.7 mph72%30.01 "Hg10 mi
8:50 PM63 °FSunny.7 mph64%30.01 "Hg10 mi
8:20 PM63 °FPassing clouds.7 mph68%29.98 "HgN/A
7:50 PM63 °FPassing clouds.12 mph64%29.98 "HgN/A
7:20 PM64 °FPassing clouds.8 mph60%30.01 "HgN/A
6:50 PM64 °FScattered clouds.13 mph60%30.01 "HgN/A
6:20 PM64 °FBroken clouds.13 mph64%30.01 "HgN/A
Weather by CustomWeather, © 2016

See weather overviewHow to use our weather pages